Regional Weather Roundup
Issued by NWS

Home | Current Version | Previous Version | Graphics & Text | Print | Product List | Glossary On
Versions: 1 2 3 4 5 6 7 8 9 10 11 12 13 14 15 16 17 18 19 20 21 22 23 24 25 26 27 28 29 30 31 32 33 34 35 36 37 38 39 40 41 42 43 44 45 46 47 48 49 50
000
ASUS45 KPSR 202110
RWRAZ

ARIZONA REGIONAL HOURLY WEATHER ROUNDUP
NATIONAL WEATHER SERVICE PHOENIX AZ
200 PM MST SAT DEC 20 2014

NOTE: FAIR INDICATES FEW OR NO CLOUDS BELOW 12,000 FEET WITH NO
SIGNIFICANT WEATHER AND/OR OBSTRUCTIONS TO VISIBILITY.

AZZ001>003-036-202200-
NORTHWEST ARIZONA

CITY           SKY/WX    TMP DP  RH WIND       PRES   REMARKS
BULLHEAD CITY  MOSUNNY   59  43  55 CALM      30.13F
KINGMAN        MOSUNNY   55  31  39 NW7       30.12F
$$

AZZ004>008-015-016-018-202200-
NORTH CENTRAL ARIZONA

CITY           SKY/WX    TMP DP  RH WIND       PRES   REMARKS
GRAND CANYON   PTSUNNY   43  23  45 SW8       30.13F
PRESCOTT       SUNNY     52  26  36 NE3       30.12F
FLAGSTAFF      PTSUNNY   44  29  55 SW13      30.12F
PAYSON         PTSUNNY   50  28  43 W7        30.13F
PAGE           CLOUDY    40  30  67 W5        30.14F
$$

AZZ009>014-017-202200-
NORTHEAST ARIZONA

CITY           SKY/WX    TMP DP  RH WIND       PRES   REMARKS
WINSLOW        CLOUDY    34  33  96 NE3       30.14F
SAINT JOHNS    SUNNY     46  21  37 CALM      30.11F
WINDOW ROCK    SUNNY     46  26  45 MISG      30.09F
SHOW LOW       SUNNY     45  18  33 CALM      30.15F
$$

AZZ023-202200-
GREATER PHOENIX AREA

CITY           SKY/WX    TMP DP  RH WIND       PRES   REMARKS
PHOENIX        PTSUNNY   63  36  36 CALM      30.08F
BUCKEYE          N/A     61  39  44 CALM      30.10F
GLENDALE       PTSUNNY   63  37  39 CALM      30.10F
LUKE AFB       MOSUNNY   62  38  41 VRB3      30.07F
DEER VALLEY    PTSUNNY   60  38  43 W6        30.08F
SCOTTSDALE     CLOUDY    60  38  43 CALM      30.10F
MESA-FALCON    PTSUNNY   59  36  41 SW6       30.08
MESA-GATEWAY   PTSUNNY   59  39  47 W3        30.11
CHANDLER       MOSUNNY   59  41  51 SW7       30.09F
$$

AZZ027-028-202200-
SOUTHWEST MARICOPA COUNTY AND PINAL COUNTY

CITY           SKY/WX    TMP DP  RH WIND       PRES   REMARKS
CASA GRANDE    PTSUNNY   61  37  41 CALM      30.09F
GILA BEND      FAIR      64  41  43 VRB3      30.10F
$$

AZZ503-504-507>509-202200-
SOUTHEAST ARIZONA

CITY           SKY/WX    TMP DP  RH WIND       PRES   REMARKS
TUCSON         SUNNY     61  31  32 N6        30.10F
DAVIS-MONTHAN  MOSUNNY   59  32  35 NW6       30.07F
RYAN FIELD       N/A     63  37  39 CALM      30.10F
NOGALES        SUNNY     62  23  22 W6        30.07F
SIERRA VISTA   SUNNY     58  22  24 E5        30.10F
DOUGLAS        SUNNY     57  25  29 VRB6      30.10F
SAFFORD        SUNNY     55  35  47 N3        30.10F
$$

AZZ020-021-025-026-031-202200-
SOUTHWEST ARIZONA

CITY           SKY/WX    TMP DP  RH WIND       PRES   REMARKS
YUMA           MOSUNNY  N/A N/A N/A CALM      30.09F
$$

CAZ031-033-041-043-047-048-061-202200-
SOUTHERN CALIFORNIA

CITY           SKY/WX    TMP DP  RH WIND       PRES   REMARKS
DOWNTOWN L.A.  CLOUDY    63  48  58 VRB3      30.14F
L.A. AIRPORT   CLOUDY    61  53  75 W7        30.14F
SAN DIEGO      PTSUNNY   65  51  60 W6        30.15F
BURBANK        CLOUDY    61  48  62 E3        30.14F
ONTARIO        CLOUDY    58  45  62 CALM      30.15S
RIVERSIDE      CLOUDY    59  46  62 W3        30.15S
PALM SPRINGS   CLOUDY    65  38  36 E3        30.11F
EL CENTRO NAS  CLOUDY    66  42  41 N6        30.10F
IMPERIAL       CLOUDY    65  42  43 CALM      30.09F
BLYTHE         MOSUNNY   59  43  55 CALM      30.12F
NEEDLES        MOSUNNY   61  40  45 NE3       30.12F
$$

NVZ020-UTZ003-202200-
SOUTHERN NEVADA-UTAH

CITY           SKY/WX    TMP DP  RH WIND       PRES   REMARKS
LAS VEGAS      PTSUNNY   55  36  48 S3        30.08F
SALT LAKE CITY LGT RAIN  39  35  86 CALM      30.08F
$$

NMZ009-TXZ055-202200-
NEW MEXICO-WEST TEXAS

CITY           SKY/WX    TMP DP  RH WIND       PRES   REMARKS
ALBUQUERQUE    MOSUNNY   43  26  51 CALM      30.10F
EL PASO        PTSUNNY   55  27  34 SW13      30.08F
$$


........................KEY........................
SKY/WX - SKY CONDITION/WEATHER
TMP    - TEMPERATURE IN FAHRENHEIT
DP     - DEW POINT IN FAHRENHEIT
RH     - RELATIVE HUMIDITY IN PERCENT
WIND   - DIRECTION AND SPEED IN MILES PER HOUR (MPH)
VRB    - VARIABLE WIND DIRECTION
PRES   - MEAN SEA LEVEL PRESSURE IN INCHES OF MERCURY
         F - FALLING PRESSURE   R - RISING PRESSURE
         S - STEADY PRESSURE
VSB    - VISIBILITY IN MILES
HX     - HEAT INDEX IN FAHRENHEIT
WCI    - WIND CHILL INDEX IN FAHRENHEIT
TC     - TEMPERATURE IN CELSIUS WHICH IS ALSO KNOWN AS
         TEMPERATURE IN CENTIGRADE
AFB    - AIR FORCE BASE
         LUKE AFB IS LUKE AIR FORCE BASE
         DAVIS-MONTHAN IS DAVIS-MONTHAN AIR FORCE BASE
NAS    - NAVAL AIR STATION
         EL CENTRO NAS IS EL CENTRO NAVAL AIR STATION
N/A    - NOT AVAILABLE



USA.gov is the U.S. government's official web portal to all federal, state and local government web resources and services.